Location: Warszawa
(52.2500°N, 21.0000°E)
Time: 20:13:44
(UTC+02:00)

ITUPSAT 1 - Visible Passes

Search period start: 12 May 2026 00:00
Search period end: 22 May 2026 00:00
Orbit: 687 x 697 km, 98.4° (Epoch: 12 May)

Date Brightness Start Highest point End Pass type
(mag) Time Alt. Az. Time Alt. Az. Time Alt. Az.
12 May ? 00:41:44 10° NNE 00:46:28 71° WNW 00:48:14 38° SW visible
12 May ? 02:20:48 10° NNW 02:23:11 14° NW 02:25:33 10° W visible
12 May ? 23:43:52 10° NNE 23:48:17 38° E 23:49:35 32° SE visible
13 May ? 01:21:30 10° N 01:25:46 35° WNW 01:28:15 21° WSW visible
13 May ? 22:47:32 10° ENE 22:49:37 13° E 22:50:55 12° ESE visible
14 May ? 00:23:08 10° NNE 00:27:54 81° ESE 00:29:35 40° S visible
14 May ? 02:01:38 10° NNW 02:04:52 19° NW 02:08:05 10° W visible
14 May ? 23:25:33 10° NE 23:29:34 27° E 23:30:56 23° ESE visible
15 May ? 01:02:45 10° N 01:07:18 48° WNW 01:09:36 26° SW visible
16 May ? 00:04:36 10° NNE 00:09:17 56° ESE 00:10:56 37° SSE visible
16 May ? 01:42:40 10° N 01:46:30 25° WNW 01:49:36 13° WSW visible
16 May ? 23:07:26 10° NE 23:10:48 19° E 23:12:16 17° ESE visible
17 May ? 00:44:04 10° N 00:48:47 69° WNW 00:50:56 32° SW visible
17 May ? 02:23:12 10° NNW 02:25:29 14° NW 02:27:46 10° W visible
17 May ? 23:46:10 10° NNE 23:50:37 39° E 23:52:16 29° SE visible
18 May ? 01:23:50 10° N 01:28:05 34° WNW 01:30:56 18° WSW visible
18 May ? 22:49:43 10° ENE 22:51:58 13° E 22:53:35 11° ESE visible
19 May ? 00:25:27 10° NNE 00:30:13 84° ESE 00:32:15 35° S visible
19 May ? 02:03:59 10° NNW 02:07:09 18° NW 02:10:19 10° W visible
19 May ? 23:27:49 10° NE 23:31:54 28° E 23:33:35 22° SE visible
20 May ? 01:05:04 10° N 01:09:36 47° WNW 01:12:15 23° SW visible
21 May ? 00:06:54 10° NNE 00:11:36 58° ESE 00:13:34 33° SSE visible
21 May ? 01:45:00 10° N 01:48:47 24° WNW 01:52:14 11° WSW visible
21 May ? 23:09:41 10° NE 23:13:07 20° E 23:14:53 16° ESE visible
